ギブス彗星

P/2023 Y2 ( Gibbs )

English version
Home page
Updated on May 13, 2024

---------------------------------------------------------------------

・ プロフィール

発見日 2023年12月17日
発見光度 19.4等
発見者 Alexander R. Gibbs (Mt. Lemmon Survey)

・ 写真集

・ 軌道要素

Epoch 2024 Mar. 31.0 TT = JDT 2460400.5
T 2023 Aug.  9.88151 TT                                 Rudenko
q   2.2760469            (2000.0)            P               Q
n   0.13601510     Peri.   16.81686     -0.10322846     -0.98744110
a   3.7446505      Node    79.23005     +0.89799769     -0.14422652
e   0.3921871      Incl.    6.99274     +0.42771957     +0.06448864
P   7.25
>From 88 observations 2022 Oct. 23-2024 Mar. 14, mean residual 0".7.

・ 光度変化

        m1 = 14.5 + 5 logΔ + 10.0 log r

---------------------------------------------------------------------

軌道要素はM.P.E.C. 2024-F34に掲載されたものです。
光度グラフはComet for Windowsで作成したものです。

---------------------------------------------------------------------

Copyright(C) Seiichi Yoshida (comet@aerith.net). All rights reserved.